User: anonymous
Location: Rehoboth Beach
(38.7438°N, 75.1341°W)
Time: 10:46:39
(UTC-04:00)
Language:

Cosmos 1452 Rocket - Orbit

View from above orbital plane
View from above orbital plane
View from above satellite
View from above satellite

Ground track
Ground track

The orbit data is extracted from the following two-line orbital elements,

1 13992U 83031B   14113.17237155  .00000327  00000-0  12215-3 0  3912
2 13992 074.0528 317.7693 0005618 232.2302 267.1281 14.35719832623597
Epoch (UTC): 23 April 2014 04:08:12
Eccentricity: 0.0005618
inclination: 74.0528°
perigee height: 768 km
apogee height: 776 km
right ascension of ascending node: 317.7693°
argument of perigee: 232.2302°
revolutions per day: 14.35719832
mean anomaly at epoch: 267.1281°
orbit number at epoch: 62359

The dashed part of the orbit path shows where the satellite is in the earth's shadow,  

DLR